Погода в Лозенце

Болгария     42°12′38″N   27°48′07″E
темп.,
°C
ветер,
м/с
пор.,
м/с
влажн.,
%
обл.,
%
осадки,
мм/ч
давл.,
гПа
погр.,
м
17 мая, пн
пн1700:00+12юз22945 0.1 100840
03:00+12з34925 0.1 100883
06:00+12зюз33904 0.0 100864
09:00+17зюз35761 0.0 1009345
12:00+22з365163 0.0 10081594
15:00+23зсз265378 0.0 10071786
18:00+22ююв1471100 0.5 10061485
21:00+14юв2295100 3.3 100828
18 мая, вт
вт1800:00+15ююз239547 1.4 100751
03:00+14зюз339591 2.5 100772
06:00+13зюз22935 0.4 100742
09:00+16зсз259299 0.4 1009224
12:00+14сз61184100 0.4 1012713
15:00+13з3894100 2.6 1011459
18:00+14юз498878 1.1 1012261
21:00+12юз46890 1.1 1013100
19 мая, ср
ср1900:00+11юз47830 0.0 1014108
03:00+10зюз37880 0.0 1014121
06:00+10зюз34875 0.0 101469
09:00+17з2462100 0.0 1014335
12:00+20всв32590 0.0 1014465
15:00+20в55580 0.0 1013549
18:00+20вюв356581 0.0 1012279
21:00+15ююв35725 0.0 101176
20 мая, чт
чт2000:00+13ююв356197 0.0 101080
03:00+12зюз226185 0.0 101027
06:00+11зсз347077 0.0 101070
09:00+16с6781100 0.0 1011743
12:00+16ссз667063 0.0 1012774
15:00+17ссз556424 0.0 1012875
18:00+15сз3771100 0.0 1011516
21:00+13зсз2277100 0.1 101272
21 мая, пт
пт2100:00+13з2373100 0.0 101283
03:00+13зсз2373100 0.0 101263
06:00+11зсз3581100 0.0 1012133
09:00+15ссз586497 0.0 1013619
12:00+16с6767100 0.0 1013945
15:00+15с698198 0.1 1012898
18:00+15св6890100 0.6 1011670
21:00+14св6994100 2.1 1012491